Regional Weather Roundup
Issued by NWS Mt. Holly, NJ

Current Version | Previous Version | Text Only | Print | Product List | Glossary On
Versions: 1 2 3 4 5 6 7 8 9 10 11 12 13 14 15 16 17 18 19 20 21 22 23 24 25 26 27
000
ASUS41 KPHI 161713
RWRPHI

REGIONAL WEATHER ROUNDUP
NATIONAL WEATHER SERVICE MOUNT HOLLY NJ
100 PM EDT MON JUL 16 2018

NOTE:  "FAIR" INDICATES FEW OR NO CLOUDS BELOW 12,000 FEET WITH NO
SIGNIFICANT WEATHER AND/OR OBSTRUCTIONS TO VISIBILITY.

 * = STATION DOES NOT REPORT PRECIPITATION (E.G. RAIN, SNOW, ETC.)
        OR FOG.

NJZ015>026-161800-
SOUTHERN NEW JERSEY

CITY           SKY/WX    TMP DP  RH WIND       PRES   REMARKS
POMONA         PTSUNNY   94  72  48 SW10      29.98F HX 102
WILDWOOD*      FAIR      88  73  61 SE9       30.01F HX  95
MILLVILLE      FAIR      91  71  51 S9        29.98F HX  97
WRIGHTSTOWN    FAIR      91  70  49 W13       29.95F HX  97
MOUNT HOLLY    FAIR      90  70  51 W8        29.97F HX  95
TRENTON        FAIR      90  69  50 W9        29.97F HX  94

$$
NJZ001>014-161800-
NORTHERN NEW JERSEY

CITY           SKY/WX    TMP DP  RH WIND       PRES   REMARKS
SUSSEX         FAIR      89  74  60 VRB3      29.97F HX  98
ANDOVER*         N/A     88  74  63 SW3       29.99F HX  96
MORRISTOWN     MOSUNNY   90  73  58 SW7       29.97F HX  98
NEWARK         FAIR      93  70  46 SW8       29.95F HX  99
TETERBORO      FAIR      91  72  53 S5        29.94F HX  98
CALDWELL       FAIR      89  71  55 VRB5      29.96F HX  95
SOMERVILLE     FAIR      89  75  63 VRB3      29.95F HX  99
ALLAIRE*       PTSUNNY   90  71  53 SW6       29.99F HX  96
TOMS RIVER*    PTSUNNY   95  70  44 W10       29.98F HX 101

$$
PAZ043-044-047-054-055-060>062-066>071-161800-
EASTERN PENNSYLVANIA

CITY           SKY/WX    TMP DP  RH WIND       PRES   REMARKS
PHILADELPHIA   FAIR      90  68  48 SW10      29.98F HX  94
NORTH PHILA    FAIR      91  70  49 VRB7      29.99S HX  96
BLUE BELL*     FAIR      88  72  58 S3        30.00F HX  94
DOYLESTOWN     FAIR      88  71  57 VRB5      29.98F HX  94
QUAKERTOWN*    SUNNY     88  73  62 VRB5      29.99F HX  96
PERKASIE*      FAIR      86  73  66 SW6       30.01F HX  93
POTTSTOWN      FAIR      86  72  62 VRB5      30.00F HX  92
LANCASTER      FAIR      91  73  55 VRB7      29.98F HX  99
COATESVILLE    FAIR      86  72  62 VRB5      30.02F HX  92
READING        FAIR      89  71  55 CALM      29.96F HX  95
ALLENTOWN      FAIR      91  69  48 CALM      29.97F HX  96
MOUNT POCONO   FAIR      84  68  58 SW6       30.05F
HAZLETON       PTSUNNY   88  70  55 CALM      30.06F HX  92
LEHIGHTON      FAIR      88  68  51 S5        29.98F HX  91
WILKES BARRE   FAIR      88  70  55 SW9       29.98F HX  93

$$
DEZALL-MDZ008-012-015-019-020-161800-
DELAWARE AND EASTERN MARYLAND

CITY           SKY/WX    TMP DP  RH WIND       PRES   REMARKS
WILMINGTON     FAIR      92  70  48 SW10      29.99F HX  97
DOVER          PTSUNNY   90  73  58 E8        29.98F HX  98
GEORGETOWN     FAIR      90  74  59 SW8       30.00F HX  99
EASTON         MOSUNNY   91  68  46 W6        30.03F HX  95
ABERDEEN       MOSUNNY   91  72  54 SW6       29.98F HX  97
PATUXENT       FAIR      88  76  67 SE12      30.00  HX  99
OCEAN CITY     FAIR      83  74  74 S8        30.02S
WALLOPS ISLAND PTSUNNY   83  75  77 S13       30.03S HX  90
CAMBRIDGE      SUNNY     84  73  70 S8        30.01S HX  91
SALISBURY      FAIR      85  74  69 SW8       30.01S HX  92

$$
PAZ001-021-NYZ056-072-MDZ011-DCZ001-161800-
OTHER NEARBY LOCATIONS

CITY           SKY/WX    TMP DP  RH WIND       PRES   REMARKS
HARRISBURG     FAIR      90  73  57 SE6       29.97F HX  98
STATE COLLEGE  MOSUNNY   86  72  62 CALM      30.01F HX  92
WILLIAMSPORT   FAIR      88  72  58 VRB3      29.96F HX  94
BINGHAMTON     FAIR      84  67  56 VRB7      30.01F
NEW YORK CITY  FAIR      89  72  56 CALM      29.99F HX  96
BALTIMORE      FAIR      93  71  48 SW7       29.97F HX 100
WASHINGTON DC  FAIR      92  73  53 S10       29.98F HX 100

$$




USA.gov is the U.S. government's official web portal to all federal, state and local government web resources and services.